Showing default

GENMAT-1, 58276

Orbit data source: Space-Track

GENMAT-1, 58276 is a payload satellite owned by GenMat (US) in SSO that was launched on Sat, 11 Nov 2023 UTC via an FALCON 9 launch vehicle from the Air Force Western Test Range (AFWTR). Payload-class satellites include a variety of spacecraft equipped with specific instruments for various scientific and technological missions. These include communications satellites like Starlink; space stations such as the ISS; scientific satellites like the Hubble; Earth observation satellites from companies like Planet Labs, Umbra, and HawkEye 360; GPS; miniature CubeSats for education and research; and military/defense satellites.

Loading next visibility...
Identifier
58276, 2023-174W
Orbit
SSO
Country
Flag of USUS
Related business
Manufacturer
GenMat
Mission
Operational Commercial Imaging
Bus & Motor
CUBESAT 6U, Unknown motor
Mass
8.8 kg wet, 8.8 kg dry
Launch date (UTC)
2023-11-11 (3 years ago)
Launch vehicle
FALCON 9
Launch site
Air Force Western Test Range (AFWTR)
Object type
Payload
Rocket body
Debris
Shape & HBR
Box, 0.1 m
Radar Cross Section
0.080 m², Medium (>0.1 m² and < 1m²)

Expand to show TLE details & history
Last TLE update: 1 day ago

TLE from 1 day ago
0 GENMAT-1
1 58276U 23174W   26175.16164094  .00008451  00000-0  25301-3 0  9999
2 58276  97.3673 252.9798 0007442 149.1018 211.0664 15.34753795146042
Epoch: 2026-06-24T03:52Z
TLE epoch observation values (Epoch: 2026-06-24T03:52:45.777Z)
Latitude
-0.00005°
Longitude
-77.53375°
Altitude
469.125 km
Speed
7.629 km/s
True Right ascension
16h 51m 55s
True Declination
0° 00' 00"
Sunlit
Object was in full shadow at epoch
Visualization orbit readout
Latitude
Unknown
Longitude
Unknown
Altitude
Unknown
Speed
Unknown
Apparent Right ascension
Unknown
Apparent Declination
Unknown
Sunlit
N/A
Visualization observer readout
Local Sidereal Time
19:49:41
Azimuth
Unknown
Elevation
Unknown
Doppler factor
Unknown
Orbital elements
Apogee altitude
463.684 km
Perigee altitude
453.509 km
Semi-major axis
6,836.733 km
Eccentricity
0.00074
Inclination
97.3673°
RAAN
252.9798°
Arg. of periapsis
149.1018°
True anomaly
211.02243°
Mean anomaly
211.0664°
Eccentric anomaly
211.04441°
Mean motion
3.83946 °/min
Orbital period
93.76 mins
BSTAR
0.00025301
Loading maneuver chart data...
Computing Atmospheric mass density...

Documentation

Showing up to 5 results
|